Weather History for Ely, MN

Change the Weather History Date:

Wednesday, February 6, 2013

  Actual Average Record
Temperature  
Mean Temperature 2 °F -  
Max Temperature 19 °F 22 °F 44 °F (2002)
Min Temperature -16 °F 1 °F -29 °F (2007)
Degree Days  
Heating Degree Days 64    
Moisture  
Dew Point 2 °F    
Average Humidity 79    
Maximum Humidity 93    
Minimum Humidity 58    
Precipitation  
Precipitation 0.00 in - - ()
Sea Level Pressure  
Sea Level Pressure 30.01 in    
Wind  
Wind Speed 2 mph (SE)    
Max Wind Speed 10 mph    
Max Gust Speed -    
Visibility 7 miles    
Events Snow    
Averages and records for this station are not official NWS values.
T = Trace of Precipitation, MM = Missing Value Source: NWS Daily Summary

Daily Weather History Graph

Daily Weather History Graph

Search for Another Location

Airport:

Trip Planner

Search our weather history database for the weather conditions in past years. The results will help you decide how hot, cold, wet, or windy it might be!

Date:

Astronomy

Feb. 06, 2013 Rise Set
Actual Time 7:27 AM CST 5:16 PM CST
Civil Twilight 6:54 AM CST 5:49 PM CST
Nautical Twilight 6:17 AM CST 6:25 PM CST
Astronomical Twilight 5:41 AM CST 7:01 PM CST
Moon 4:19 AM CST (2/6) 1:26 PM CST (2/6)
Length of Visible Light 10h 54m
Length of Day
9h 49m
Waning Crescent, 17% of the Moon is Illuminated
Feb 6
Waning Crescent
Feb 10
New
Feb 17
First Quarter
Feb 25
Full
Mar 4
Last Quarter

Hourly Weather History & Observations

Time (CST) Temp. Windchill Dew Point Humidity Pressure Visibility Wind Dir Wind Speed Gust Speed Precip Events Conditions
12:12 AM -14.8 °F - -20.2 °F 77% 29.99 in 10.0 mi Calm Calm - N/A   Clear
12:33 AM -16.6 °F - -22.0 °F 76% 29.99 in 10.0 mi Calm Calm - N/A   Scattered Clouds
12:53 AM -16.6 °F - -20.2 °F 84% 29.98 in 10.0 mi Calm Calm - N/A   Scattered Clouds
1:12 AM -16.6 °F - -20.2 °F 84% 29.99 in 10.0 mi Calm Calm - N/A   Mostly Cloudy
1:33 AM -14.8 °F - -20.2 °F 77% 29.99 in 10.0 mi Calm Calm - N/A   Overcast
1:53 AM -11.2 °F - -16.6 °F 77% 29.99 in 10.0 mi Calm Calm - N/A   Overcast
2:13 AM -9.4 °F - -14.8 °F 77% 29.99 in 10.0 mi Calm Calm - N/A   Overcast
2:31 AM -9.4 °F - -13.0 °F 84% 29.99 in 10.0 mi Calm Calm - N/A   Overcast
2:53 AM -7.6 °F - -11.2 °F 84% 29.99 in 10.0 mi Calm Calm - N/A   Overcast
3:13 AM -7.6 °F - -11.2 °F 84% 29.98 in 10.0 mi Calm Calm - N/A   Overcast
3:32 AM -7.6 °F - -11.2 °F 84% 29.99 in 10.0 mi Calm Calm - N/A   Overcast
3:53 AM -5.8 °F - -9.4 °F 84% 29.99 in 10.0 mi Calm Calm - N/A   Overcast
4:13 AM -4.0 °F - -9.4 °F 78% 30.00 in 10.0 mi Calm Calm - N/A   Overcast
4:32 AM -4.0 °F - -7.6 °F 85% 30.00 in 10.0 mi Calm Calm - N/A   Overcast
4:53 AM -2.2 °F -10.4 °F -7.6 °F 78% 29.99 in 10.0 mi SE 3.5 mph - N/A   Overcast
5:13 AM -0.4 °F - -5.8 °F 78% 29.99 in 10.0 mi Calm Calm - N/A   Overcast
5:32 AM -0.4 °F - -5.8 °F 78% 29.98 in 10.0 mi Calm Calm - N/A   Overcast
5:53 AM -0.4 °F - -5.8 °F 78% 29.99 in 10.0 mi Calm Calm - N/A   Overcast
6:12 AM -0.4 °F - -4.0 °F 85% 29.99 in 10.0 mi Calm Calm - N/A   Overcast
6:33 AM -0.4 °F - -5.8 °F 78% 29.99 in 10.0 mi Calm Calm - N/A   Overcast
6:52 AM -0.4 °F - -4.0 °F 85% 29.99 in 10.0 mi Calm Calm - N/A   Overcast
7:13 AM 1.4 °F - -4.0 °F 78% 30.00 in 10.0 mi Calm Calm - N/A   Overcast
7:33 AM 1.4 °F - -4.0 °F 78% 30.00 in 10.0 mi Calm Calm - N/A   Overcast
7:52 AM 1.4 °F - -4.0 °F 78% 30.01 in 10.0 mi Calm Calm - N/A   Overcast
8:13 AM 3.2 °F -6.2 °F -2.2 °F 78% 30.01 in 10.0 mi SSE 4.6 mph - N/A   Overcast
8:33 AM 5.0 °F - -2.2 °F 72% 30.01 in 10.0 mi Calm Calm - N/A   Overcast
8:52 AM 6.8 °F - -0.4 °F 72% 30.02 in 10.0 mi Calm Calm - N/A   Overcast
9:13 AM 8.6 °F - -0.4 °F 67% 30.02 in 10.0 mi Calm Calm - N/A   Overcast
9:33 AM 8.6 °F - 1.4 °F 73% 30.02 in 10.0 mi Calm Calm - N/A   Overcast
9:53 AM 10.4 °F 2.2 °F 1.4 °F 67% 30.01 in 10.0 mi SE 4.6 mph - N/A   Overcast
10:13 AM 12.2 °F 2.9 °F 3.2 °F 67% 30.01 in 10.0 mi South 5.8 mph - N/A   Overcast
10:33 AM 12.2 °F 6.1 °F 3.2 °F 67% 30.02 in 10.0 mi South 3.5 mph - N/A   Overcast
10:53 AM 14.0 °F 6.5 °F 3.2 °F 62% 30.02 in 10.0 mi South 4.6 mph - N/A   Overcast
11:13 AM 15.8 °F 10.2 °F 3.2 °F 58% 30.01 in 10.0 mi South 3.5 mph - N/A   Overcast
11:33 AM 17.6 °F 12.3 °F 5.0 °F 58% 30.00 in 10.0 mi South 3.5 mph - N/A   Mostly Cloudy
11:53 AM 17.6 °F 10.7 °F 5.0 °F 58% 30.00 in 10.0 mi South 4.6 mph - N/A   Scattered Clouds
12:13 PM 19.4 °F 14.3 °F 6.8 °F 58% 30.00 in 10.0 mi SSE 3.5 mph - N/A   Mostly Cloudy
12:33 PM 19.4 °F 12.8 °F 6.8 °F 58% 30.00 in 10.0 mi SW 4.6 mph - N/A   Mostly Cloudy
12:52 PM 19.4 °F 11.5 °F 8.6 °F 63% 30.00 in 10.0 mi South 5.8 mph - N/A   Mostly Cloudy
1:13 PM 19.4 °F 10.4 °F 8.6 °F 63% 30.01 in 5.0 mi SSW 6.9 mph - N/A Snow Light Snow
1:33 PM 17.6 °F 12.3 °F 10.4 °F 73% 30.00 in 2.5 mi South 3.5 mph - N/A Snow Light Snow
1:53 PM 17.6 °F 12.3 °F 12.2 °F 79% 29.99 in 1.8 mi SSE 3.5 mph - N/A Snow Light Snow
2:13 PM 17.6 °F 9.3 °F 12.2 °F 79% 29.99 in 2.0 mi SSE 5.8 mph - N/A Snow Light Snow
2:33 PM 17.6 °F 10.7 °F 14.0 °F 86% 29.99 in 1.2 mi SE 4.6 mph - N/A Snow Light Snow
2:53 PM 17.6 °F 8.2 °F 15.8 °F 93% 29.98 in 1.2 mi SE 6.9 mph - N/A Snow Light Snow
3:13 PM 17.6 °F 8.2 °F 14.0 °F 86% 29.99 in 1.5 mi SSE 6.9 mph - N/A Snow Light Snow
3:33 PM 17.6 °F 9.3 °F 14.0 °F 86% 29.99 in 2.0 mi SE 5.8 mph - N/A Snow Light Snow
3:53 PM 17.6 °F 5.7 °F 12.2 °F 79% 29.99 in 1.2 mi SE 10.4 mph - N/A Snow Light Snow
4:13 PM 17.6 °F 9.3 °F 14.0 °F 86% 29.99 in 1.8 mi SE 5.8 mph - N/A Snow Light Snow
4:32 PM 17.6 °F 8.2 °F 14.0 °F 86% 29.99 in 1.2 mi ESE 6.9 mph - N/A Snow Light Snow
4:53 PM 17.6 °F 12.3 °F 14.0 °F 86% 30.00 in 1.2 mi East 3.5 mph - N/A Snow Light Snow
5:13 PM 15.8 °F 6.1 °F 12.2 °F 86% 30.01 in 1.2 mi ESE 6.9 mph - N/A Snow Light Snow
5:33 PM 15.8 °F - 12.2 °F 86% 30.01 in 2.0 mi Calm Calm - N/A Snow Light Snow
5:53 PM 15.8 °F 10.2 °F 12.2 °F 86% 30.01 in 2.0 mi East 3.5 mph - N/A Snow Light Snow
6:12 PM 15.8 °F 10.2 °F 12.2 °F 86% 30.02 in 2.5 mi East 3.5 mph - N/A Snow Light Snow
6:33 PM 15.8 °F 10.2 °F 12.2 °F 86% 30.04 in 1.5 mi East 3.5 mph - N/A Snow Light Snow
6:53 PM 15.8 °F 10.2 °F 12.2 °F 86% 30.03 in 2.0 mi East 3.5 mph - N/A Snow Light Snow
7:12 PM 15.8 °F - 12.2 °F 86% 30.04 in 2.0 mi Calm Calm - N/A Snow Light Snow
7:33 PM 14.0 °F - 12.2 °F 93% 30.05 in 2.5 mi Calm Calm - N/A Snow Light Snow
7:53 PM 14.0 °F - 10.4 °F 86% 30.05 in 5.0 mi Calm Calm - N/A Snow Light Snow
8:12 PM 14.0 °F 8.2 °F 10.4 °F 86% 30.05 in 7.0 mi ENE 3.5 mph - N/A Snow Light Snow
8:33 PM 14.0 °F - 10.4 °F 86% 30.06 in 7.0 mi Calm Calm - N/A Snow Light Snow
8:53 PM 14.0 °F - 10.4 °F 86% 30.05 in 5.0 mi Calm Calm - N/A Snow Light Snow
9:12 PM 12.2 °F 6.1 °F 10.4 °F 92% 30.07 in 5.0 mi NE 3.5 mph - N/A Snow Light Snow
9:33 PM 12.2 °F 4.3 °F 10.4 °F 92% 30.06 in 7.0 mi East 4.6 mph - N/A Snow Light Snow
9:53 PM 14.0 °F 8.2 °F 10.4 °F 86% 30.07 in 10.0 mi NE 3.5 mph - N/A Snow Light Snow
10:12 PM 14.0 °F - 10.4 °F 86% 30.07 in 10.0 mi Calm Calm - N/A Snow Light Snow
10:33 PM 14.0 °F 8.2 °F 10.4 °F 86% 30.07 in 10.0 mi NE 3.5 mph - N/A   Overcast
10:53 PM 14.0 °F 8.2 °F 10.4 °F 86% 30.07 in 10.0 mi ENE 3.5 mph - N/A Snow Light Snow
11:13 PM 14.0 °F - 10.4 °F 86% 30.08 in 10.0 mi Calm Calm - N/A   Overcast
11:33 PM 14.0 °F - 10.4 °F 86% 30.08 in 10.0 mi Calm Calm - N/A   Overcast
11:52 PM 14.0 °F - 10.4 °F 86% 30.08 in 10.0 mi Calm Calm - N/A   Overcast